Memphis, TN

9:49 AM CDT on September 25, 2017 (GMT -0500)
Memphis International

Weather History for KMEM - July, 2013

Change the Weather History Date:

Sunday, July 28, 2013

  Actual Average Record
Temperature  
Mean Temperature 77 °F 83 °F  
Max Temperature 83 °F 92 °F 106 °F (1952)
Min Temperature 70 °F 74 °F 65 °F (2004)
Degree Days  
Heating Degree Days 0 0  
Month to date heating degree days 0 0  
Since 1 June heating degree days 0 0  
Since 1 July heating degree days 0 0  
Cooling Degree Days 12 18  
Month to date cooling degree days 436 500  
Year to date cooling degree days 1171 1259  
Since 1 June cooling degree days 886 938  
Growing Degree Days 26 (Base 50)    
Moisture  
Dew Point 60 °F    
Average Humidity 60    
Maximum Humidity 73    
Minimum Humidity 47    
Precipitation  
Precipitation 0.00 in 0.14 in 1.94 in (1998)
Month to date precipitation 3.43 4.18  
Year to date precipitation 43.48 32.09  
Snow  
Snow 0.00 in 0.00 in - ()
Month to date snowfall 0.0 0.0  
Since 1 June snowfall 0.0 0.0  
Since 1 July snowfall 0.0 0.0  
Snow Depth 0.00 in    
Sea Level Pressure  
Sea Level Pressure 30.01 in    
Wind  
Wind Speed 8 mph (ENE)    
Max Wind Speed 14 mph    
Max Gust Speed 17 mph    
Visibility 10 miles    
Events      
T = Trace of Precipitation, MM = Missing Value Source: NWS Daily Summary

Daily Weather History Graph

Daily Weather History Graph

Search for Another Location

Airport or City:

Trip Planner

Search our weather history database for the weather conditions in past years. The results will help you decide how hot, cold, wet, or windy it might be!

Date:

Astronomy

Jul. 28, 2013 Rise Set
Actual Time 6:06 AM CDT 8:05 PM CDT
Civil Twilight 5:38 AM CDT 8:33 PM CDT
Nautical Twilight 5:04 AM CDT 9:07 PM CDT
Astronomical Twilight 4:27 AM CDT 9:44 PM CDT
Moon 11:46 PM CDT (7/28) 12:30 PM CDT (7/28)
Length of Visible Light 14h 55m
Length of Day
13h 59m
Waning Gibbous, 60% of the Moon is Illuminated
Jul 28
Waning Gibbous
Jul 29
Last Quarter
Aug 6
New
Aug 14
First Quarter
Aug 20
Full

Hourly Weather History & Observations

Time (CDT) Temp. Heat Index Dew Point Humidity Pressure Visibility Wind Dir Wind Speed Gust Speed Precip Events Conditions
12:54 AM 75.0 °F - 64.0 °F 69% 29.95 in 10.0 mi NNE 5.8 mph - N/A   Partly Cloudy
1:54 AM 73.9 °F - 64.0 °F 71% 29.95 in 10.0 mi NE 6.9 mph - N/A   Clear
2:54 AM 73.0 °F - 63.0 °F 71% 29.96 in 10.0 mi NE 6.9 mph - N/A   Partly Cloudy
3:47 AM 73.4 °F - 60.8 °F 65% 29.98 in 10.0 mi NNE 6.9 mph - N/A   Mostly Cloudy
3:54 AM 73.0 °F - 61.0 °F 66% 29.97 in 10.0 mi NE 6.9 mph - N/A   Mostly Cloudy
4:07 AM 71.6 °F - 60.8 °F 69% 29.98 in 10.0 mi ENE 9.2 mph - N/A   Mostly Cloudy
4:54 AM 71.1 °F - 61.0 °F 70% 29.96 in 10.0 mi NE 6.9 mph - N/A   Partly Cloudy
5:54 AM 70.0 °F - 61.0 °F 73% 29.98 in 10.0 mi NE 9.2 mph - N/A   Scattered Clouds
6:54 AM 71.1 °F - 60.1 °F 68% 30.00 in 10.0 mi ENE 11.5 mph - N/A   Mostly Cloudy
7:54 AM 71.1 °F - 59.0 °F 66% 30.03 in 10.0 mi ENE 9.2 mph - N/A   Mostly Cloudy
8:54 AM 72.0 °F - 57.9 °F 61% 30.04 in 10.0 mi East 10.4 mph - N/A   Overcast
9:54 AM 73.9 °F - 59.0 °F 59% 30.03 in 10.0 mi East 11.5 mph - N/A   Mostly Cloudy
10:54 AM 75.0 °F - 57.9 °F 55% 30.05 in 10.0 mi ENE 9.2 mph - N/A   Overcast
11:54 AM 78.1 °F - 57.9 °F 50% 30.04 in 10.0 mi ENE 10.4 mph - N/A   Mostly Cloudy
12:54 PM 79.0 °F - 57.9 °F 48% 30.04 in 10.0 mi East 9.2 mph - N/A   Scattered Clouds
1:54 PM 82.0 °F 82.7 °F 61.0 °F 49% 30.02 in 10.0 mi Calm Calm - N/A   Scattered Clouds
2:54 PM 82.0 °F 82.4 °F 60.1 °F 47% 30.01 in 10.0 mi East 4.6 mph - N/A   Mostly Cloudy
3:54 PM 82.0 °F 82.7 °F 61.0 °F 49% 30.01 in 10.0 mi NNE 6.9 mph - N/A   Mostly Cloudy
4:54 PM 81.0 °F 81.6 °F 60.1 °F 49% 30.01 in 10.0 mi ENE 8.1 mph - N/A   Overcast
5:54 PM 80.1 °F 80.9 °F 60.1 °F 50% 30.01 in 10.0 mi ENE 9.2 mph - N/A   Mostly Cloudy
6:54 PM 78.1 °F - 60.1 °F 54% 30.03 in 10.0 mi NNE 6.9 mph - N/A   Mostly Cloudy
7:54 PM 77.0 °F - 60.1 °F 56% 30.04 in 10.0 mi ENE 5.8 mph - N/A   Mostly Cloudy
8:54 PM 75.9 °F - 59.0 °F 56% 30.04 in 10.0 mi ENE 5.8 mph - N/A   Mostly Cloudy
9:54 PM 75.0 °F - 62.1 °F 64% 30.06 in 10.0 mi ENE 5.8 mph - N/A   Mostly Cloudy
10:54 PM 73.9 °F - 61.0 °F 64% 30.06 in 10.0 mi ENE 8.1 mph - N/A   Scattered Clouds
11:54 PM 73.0 °F - 60.1 °F 64% 30.05 in 10.0 mi East 6.9 mph - N/A   Mostly Cloudy